Location: Elkol
(41.7238°N, 110.6124°W)
Time: 21:15:09
(UTC+00:00)

Transit 2A - Visible Passes

Search period start: 27 May 2022 00:00
Search period end: 06 June 2022 00:00
Orbit: 598 x 959 km, 66.7° (Epoch: 26 May)

Date Brightness Start Highest point End Pass type
(mag) Time Alt. Az. Time Alt. Az. Time Alt. Az.
30 May 8.3 11:17:29 10° SSE 11:22:05 23° ESE 11:26:24 10° ENE visible
31 May 8.7 10:44:31 10° SE 10:47:56 16° ESE 10:51:13 10° ENE visible
01 Jun 9.0 10:13:29 10° ESE 10:13:51 10° ESE 10:14:12 10° E visible
02 Jun 7.0 11:16:16 10° S 11:22:01 51° ESE 11:27:18 10° NE visible
03 Jun 7.5 10:42:27 10° S 10:47:47 35° ESE 10:52:44 10° NE visible
04 Jun 8.0 10:08:55 10° SSE 10:13:35 24° ESE 10:17:58 10° ENE visible
05 Jun 8.4 09:35:52 10° SE 09:39:27 17° ESE 09:42:51 10° ENE visible
05 Jun 6.3 11:16:15 10° SW 11:22:10 75° WNW 11:27:31 10° NNE visible
